#timestamp,LO_Frequency,Hit,StdDev 
1576213215.2,286047000.7,N
1576213235.1,286046999.8,N
1576213236.0,286046999.8,N
1576213255.8,286047000.7,N
1576213275.7,286047000.8,N
1576213295.5,286046998.4,N
1576213315.3,286046999.0,N
1576213335.2,286046999.0,N
1576213355.9,286047000.3,N
1576213375.7,286047002.3,N
1576213395.6,286047002.7,N
1576213415.4,286047002.6,N
1576213435.2,286047002.6,N
1576213455.1,286047000.1,N
1576213456.0,286047000.1,N
1576213475.8,286046999.9,N
1576213495.7,286047002.7,N
1576213515.5,286047004.2,N
1576213535.3,286047007.5,Y
1576213555.2,286047005.1,P
1576213575.0,286047003.7,N
1576213575.9,286047003.7,N
1576213595.8,286047005.8,Y
1576213615.6,286046998.5,P
1576213635.4,286047000.8,N
1576213655.3,286046998.8,N
1576213675.1,286046999.2,N
1576213695.8,286046999.3,N
1576213715.7,286047001.2,N
1576213735.5,286046999.6,N
1576213755.4,286046997.3,N
1576213775.2,286046997.1,N
1576213795.0,286046999.6,N
1576213795.9,286046999.6,N
1576213815.8,286047000.0,N
1576213835.6,286047000.9,N
1576213855.4,286046998.1,N
1576213875.3,286047000.4,N
1576213895.1,286047000.6,N
1576213915.9,286047001.6,N
1576213935.7,286047002.2,N
1576213955.5,286047002.6,N
1576213975.4,286047002.4,N
1576213995.2,286047005.7,Y
1576214015.0,286047001.4,P
1576214016.0,286047001.4,N
1576214035.8,286047000.0,N
1576214055.6,286047000.5,N
1576214075.5,286046998.3,N
1576214095.3,286046999.6,N
1576214115.1,286046999.9,N
1576214135.9,286047002.3,N
1576214155.7,286047002.5,N
1576214175.5,286047002.6,N
1576214195.4,286047001.9,N
1576214215.2,286046999.8,N
1576214235.1,286047001.1,N
1576214236.0,286047001.1,N
1576214285.8,286047000.3,E
1576214295.8,286047002.7,N
1576214315.6,286047004.0,P
1576214335.4,286047003.2,P
1576214355.3,286047004.3,Y
1576214375.1,286046999.1,P
1576214395.8,286046996.6,N
1576214415.7,286046998.0,N
1576214435.5,286046997.0,N
1576214455.4,286046995.3,N
1576214475.2,286046993.6,N
1576214495.0,286046996.3,N
1576214495.9,286046996.3,N
1576214515.8,286046996.0,N
1576214535.6,286046993.9,N
1576214555.4,286046993.5,N
1576214575.3,286046996.0,N
1576214595.1,286046994.0,N
1576214615.9,286046994.1,N
1576214635.7,286046991.9,Y
1576214655.5,286046998.0,P
1576214675.4,286046998.4,N
1576214695.2,286046999.6,N
1576214715.1,286046999.6,N
1576214716.0,286046999.6,N
1576214735.8,286046997.7,N
1576214755.6,286046996.6,N
1576214775.5,286046999.5,N
1576214795.3,286046997.0,N
1576214815.1,286047011.9,Y
1576214835.9,286046998.6,P
1576214855.7,286046998.2,P
1576214875.6,286047001.1,P
1576214895.4,286047000.9,N
1576214915.2,286046999.9,N
1576214935.1,286047002.5,N
1576214936.0,286047002.5,N
1576214955.8,286047001.1,N
1576214975.6,286047002.1,N
1576214995.5,286047004.4,N
1576215015.3,286047004.1,N
1576215035.2,286047002.1,N
1576215055.9,286047002.4,N
1576215075.7,286047000.0,N
1576215095.6,286047000.2,N
1576215115.4,286047002.1,N
1576215135.2,286046999.7,N
1576215155.1,286047000.4,N
1576215156.0,286047000.4,N
1576215175.8,286047001.2,N
1576215195.7,286047002.6,N
1576215215.5,286047000.2,N
1576215235.3,286047003.2,N
1576215255.2,286047010.2,Y
1576215275.0,286047005.8,P
1576215275.9,286047005.8,N
1576215295.7,286047000.5,N
1576215315.6,286047000.4,N
1576215335.4,286047000.4,N
1576215355.3,286047000.6,N
1576215375.1,286047000.6,N
1576215395.8,286047001.0,N
1576215415.7,286047000.9,N
1576215435.5,286046999.8,N
1576215455.3,286046998.2,N
1576215475.2,286046999.6,N
1576215495.0,286046997.0,N
1576215495.9,286046997.0,N
1576215515.8,286046997.6,N
1576215535.6,286046996.7,N
1576215555.4,286046997.5,N
1576215575.3,286046999.0,N
1576215595.1,286046997.2,N
1576215615.9,286046998.8,N
1576215635.7,286046999.6,N
1576215655.5,286046999.0,N
1576215675.4,286046999.2,N
1576215695.2,286046999.3,N
1576215715.0,286046999.1,N
1576215715.9,286046999.1,N
1576215735.8,286046998.7,N
1576215755.6,286046999.2,N
1576215775.4,286046999.2,N
1576215795.3,286047000.5,N
1576215815.1,286047001.0,N
1576215835.9,286046999.8,N
1576215855.7,286047002.6,N
1576215875.5,286047002.3,N
1576215895.4,286047002.8,N
1576215915.2,286047002.7,N
1576215935.1,286047002.7,N
1576215936.0,286047002.7,N
1576215955.8,286047001.5,N
1576215975.6,286047002.2,N
1576215995.5,286047003.8,N
1576216015.3,286047004.2,N
1576216035.1,286047004.4,N
1576216055.9,286047002.8,N
1576216075.7,286047003.8,N
1576216095.6,286047002.5,N
1576216115.4,286047000.2,N
1576216135.2,286047000.6,N
1576216155.1,286046998.9,N
1576216156.0,286046998.9,N
1576216175.8,286046998.2,N
1576216195.6,286047000.3,N
1576216215.5,286047002.3,N
1576216235.3,286047002.0,N
1576216255.1,286047001.9,N
1576216275.9,286047004.0,N
1576216295.7,286047003.8,N
1576216315.6,286047002.3,N
1576216335.4,286047003.6,N
1576216355.2,286047004.4,N
1576216375.1,286047002.1,N
1576216376.0,286047002.1,N
1576216395.8,286047002.5,N
1576216415.6,286047000.9,N
1576216435.5,286047000.0,N
1576216455.3,286046999.4,N
1576216475.2,286046999.1,N
1576216495.9,286046998.1,N
1576216515.7,286046999.3,N
1576216535.6,286046998.4,N
1576216555.4,286046996.5,N
1576216575.2,286046996.6,N
1576216595.1,286046998.7,N
1576216596.0,286046998.7,N
1576216615.8,286046998.5,N
1576216635.7,286046998.7,N
1576216655.5,286046999.6,N
1576216675.3,286046998.3,N
1576216695.2,286046998.1,N
1576216715.0,286046998.2,N
1576216715.9,286046998.2,N
1576216735.7,286047000.4,N
1576216755.6,286047000.4,N
1576216775.4,286047002.4,N
1576216795.3,286047002.8,N
